Weather History for Mineola, TX

Change the Weather History Date:

Sunday, October 7, 2012

  Actual Average (KTYR) Record (KTYR)
Temperature  
Mean Temperature 50 °F 70 °F  
Max Temperature 53 °F 81 °F 96 °F (1917)
Min Temperature 48 °F 59 °F 40 °F (1978)
Degree Days  
Heating Degree Days 14 1  
Month to date heating degree days 7  
Since 1 July heating degree days 12  
Cooling Degree Days 0 6  
Month to date cooling degree days 45  
Year to date cooling degree days 2309  
Moisture  
Dew Point 42 °F    
Average Humidity 74    
Maximum Humidity 100    
Minimum Humidity 58    
Precipitation  
Precipitation 0.00 in 0.13 in 2.95 in (1927)
Month to date precipitation 0.92  
Year to date precipitation 33.52  
Snow  
Snow 0.00 in - - ()
Month to date snowfall  
Since 1 July snowfall  
Since 1 September snowfall  
Snow Depth -    
Sea Level Pressure  
Sea Level Pressure 30.25 in    
Wind  
Wind Speed 4 mph (NNE)    
Max Wind Speed 8 mph    
Max Gust Speed -    
Visibility 9 miles    
Events Rain , Thunderstorm    
T = Trace of Precipitation, MM = Missing Value Source: NWS Daily Summary

Daily Weather History Graph

Daily Weather History Graph

Search for Another Location

Airport:

Trip Planner

Search our weather history database for the weather conditions in past years. The results will help you decide how hot, cold, wet, or windy it might be!

Date:

Astronomy

Oct. 07, 2012 Rise Set
Actual Time 7:20 AM CDT 6:58 PM CDT
Civil Twilight 6:55 AM CDT 7:22 PM CDT
Nautical Twilight 6:27 AM CDT 7:51 PM CDT
Astronomical Twilight 5:58 AM CDT 8:19 PM CDT
Moon No Moon Rise 1:45 PM CDT (10/7)
Length of Visible Light 12h 26m
Length of Day
11h 37m
Waning Gibbous, 56% of the Moon is Illuminated
Oct 7
Waning Gibbous
Oct 8
Last Quarter
Oct 15
New
Oct 21
First Quarter
Oct 29
Full

Hourly Weather History & Observations

Time (CDT) Temp. Dew Point Humidity Pressure Visibility Wind Dir Wind Speed Gust Speed Precip Events Conditions
12:15 AM 48.2 °F 37.4 °F 66% 30.25 in 10.0 mi NE 8.1 mph - N/A   Mostly Cloudy
12:35 AM 48.2 °F 37.4 °F 66% 30.26 in 10.0 mi North 5.8 mph - N/A   Overcast
12:55 AM 48.2 °F 37.4 °F 66% 30.25 in 10.0 mi NE 4.6 mph - N/A   Overcast
1:15 AM 48.2 °F 37.4 °F 66% 30.25 in 10.0 mi NNE 5.8 mph - N/A   Overcast
1:35 AM 48.2 °F 39.2 °F 71% 30.25 in 10.0 mi NNE 5.8 mph - N/A   Overcast
2:15 AM 48.2 °F 39.2 °F 71% 30.26 in 10.0 mi Calm Calm - N/A   Overcast
2:35 AM 48.2 °F 39.2 °F 71% 30.26 in 10.0 mi North 5.8 mph - N/A   Overcast
2:55 AM 48.2 °F 39.2 °F 71% 30.25 in 10.0 mi NNE 4.6 mph - N/A   Mostly Cloudy
3:15 AM 48.2 °F 39.2 °F 71% 30.26 in 10.0 mi North 4.6 mph - N/A   Overcast
3:35 AM 48.2 °F 39.2 °F 71% 30.25 in 10.0 mi NNE 5.8 mph - N/A   Overcast
3:55 AM 48.2 °F 39.2 °F 71% 30.24 in 10.0 mi NNE 5.8 mph - N/A   Mostly Cloudy
4:15 AM 48.2 °F 39.2 °F 71% 30.25 in 10.0 mi NNE 4.6 mph - N/A   Mostly Cloudy
4:35 AM 48.2 °F 39.2 °F 71% 30.26 in 10.0 mi NNE 5.8 mph - N/A   Overcast
4:55 AM 48.2 °F 39.2 °F 71% 30.26 in 10.0 mi NNE 5.8 mph - N/A   Mostly Cloudy
5:15 AM 48.2 °F 39.2 °F 71% 30.26 in 10.0 mi North 8.1 mph - N/A   Mostly Cloudy
5:35 AM 48.2 °F 39.2 °F 71% 30.27 in 10.0 mi North 4.6 mph - N/A   Mostly Cloudy
5:55 AM 48.2 °F 39.2 °F 71% 30.27 in 10.0 mi Calm Calm - N/A   Overcast
6:15 AM 48.2 °F 39.2 °F 71% 30.27 in 10.0 mi Calm Calm - N/A   Overcast
6:35 AM 48.2 °F 39.2 °F 71% 30.28 in 10.0 mi Calm Calm - N/A   Overcast
6:55 AM 48.2 °F 39.2 °F 71% 30.28 in 10.0 mi Calm Calm - N/A   Overcast
7:15 AM 48.2 °F 41.0 °F 76% 30.28 in 10.0 mi Calm Calm - N/A   Mostly Cloudy
7:35 AM 48.2 °F 41.0 °F 76% 30.29 in 10.0 mi Calm Calm - N/A   Overcast
7:55 AM 48.2 °F 42.8 °F 82% 30.29 in 10.0 mi NNE 4.6 mph - N/A   Overcast
8:15 AM 48.2 °F 42.8 °F 82% 30.30 in 10.0 mi NNE 3.5 mph - N/A   Overcast
8:35 AM 48.2 °F 42.8 °F 82% 30.30 in 10.0 mi NNE 3.5 mph - N/A   Overcast
8:55 AM 48.2 °F 42.8 °F 82% 30.30 in 10.0 mi North 4.6 mph - N/A   Overcast
9:15 AM 48.2 °F 42.8 °F 82% 30.30 in 10.0 mi Calm Calm - N/A   Overcast
9:35 AM 50.0 °F 42.8 °F 76% 30.30 in 10.0 mi Calm Calm - N/A   Overcast
9:55 AM 50.0 °F 42.8 °F 76% 30.30 in 10.0 mi Calm Calm - N/A   Mostly Cloudy
10:15 AM 50.0 °F 41.0 °F 71% 30.30 in 10.0 mi NE 3.5 mph - N/A   Scattered Clouds
10:35 AM 51.8 °F 41.0 °F 67% 30.30 in 10.0 mi NE 4.6 mph - N/A   Mostly Cloudy
10:55 AM 51.8 °F 42.8 °F 71% 30.30 in 10.0 mi NE 3.5 mph - N/A   Mostly Cloudy
11:15 AM 51.8 °F 41.0 °F 67% 30.30 in 10.0 mi NNE 4.6 mph - N/A   Mostly Cloudy
11:35 AM 51.8 °F 39.2 °F 62% 30.30 in 10.0 mi NNE 3.5 mph - N/A   Mostly Cloudy
11:55 AM 51.8 °F 41.0 °F 67% 30.30 in 10.0 mi North 3.5 mph - N/A   Mostly Cloudy
12:15 PM 51.8 °F 39.2 °F 62% 30.29 in 10.0 mi ENE 3.5 mph - N/A   Mostly Cloudy
12:35 PM 53.6 °F 39.2 °F 58% 30.29 in 10.0 mi NNE 3.5 mph - N/A   Mostly Cloudy
12:55 PM 53.6 °F 39.2 °F 58% 30.27 in 10.0 mi Calm Calm - N/A   Partly Cloudy
1:15 PM 53.6 °F 39.2 °F 58% 30.26 in 10.0 mi North 6.9 mph - N/A   Clear
1:35 PM 53.6 °F 39.2 °F 58% 30.25 in 10.0 mi Calm Calm - N/A   Partly Cloudy
1:55 PM 53.6 °F 39.2 °F 58% 30.25 in 10.0 mi North 3.5 mph - N/A   Partly Cloudy
2:15 PM 53.6 °F 39.2 °F 58% 30.24 in 10.0 mi North 6.9 mph - N/A   Clear
2:35 PM 53.6 °F 39.2 °F 58% 30.23 in 10.0 mi North 4.6 mph - N/A   Partly Cloudy
2:55 PM 53.6 °F 39.2 °F 58% 30.22 in 10.0 mi Calm Calm - N/A   Scattered Clouds
3:15 PM 53.6 °F 39.2 °F 58% 30.22 in 10.0 mi NNE 4.6 mph - N/A   Mostly Cloudy
3:35 PM 53.6 °F 39.2 °F 58% 30.22 in 10.0 mi Calm Calm - N/A   Mostly Cloudy
3:55 PM 53.6 °F 39.2 °F 58% 30.21 in 10.0 mi NE 3.5 mph - N/A   Mostly Cloudy
4:15 PM 53.6 °F 39.2 °F 58% 30.21 in 10.0 mi Calm Calm - N/A   Mostly Cloudy
4:35 PM 53.6 °F 41.0 °F 62% 30.20 in 10.0 mi Calm Calm - N/A   Mostly Cloudy
4:55 PM 53.6 °F 41.0 °F 62% 30.20 in 10.0 mi Calm Calm - N/A   Mostly Cloudy
5:15 PM 53.6 °F 41.0 °F 62% 30.20 in 10.0 mi Calm Calm - N/A Thunderstorm Mostly Cloudy
5:35 PM 51.8 °F 46.4 °F 82% 30.20 in 8.0 mi Calm Calm - N/A   Light Drizzle
5:55 PM 51.8 °F 44.6 °F 76% 30.21 in 9.0 mi Calm Calm - N/A   Mostly Cloudy
6:15 PM 51.8 °F 46.4 °F 82% 30.20 in 10.0 mi Calm Calm - N/A   Mostly Cloudy
6:35 PM 51.8 °F 46.4 °F 82% 30.20 in 10.0 mi Calm Calm - N/A   Overcast
7:15 PM 51.8 °F 46.4 °F 82% 30.20 in 4.0 mi Calm Calm - N/A Rain Rain
7:35 PM 51.8 °F 48.2 °F 88% 30.22 in 3.0 mi Calm Calm - N/A Rain Rain
7:55 PM 50.0 °F 48.2 °F 94% 30.22 in 6.0 mi Calm Calm - N/A   Light Drizzle
8:15 PM 50.0 °F 46.4 °F 87% 30.24 in 2.5 mi Calm Calm - N/A Rain Heavy Rain
8:35 PM 48.2 °F 46.4 °F 93% 30.23 in 3.0 mi Calm Calm - N/A   Overcast
8:55 PM 48.2 °F 46.4 °F 93% 30.25 in 5.0 mi Calm Calm - N/A   Overcast
9:15 PM 48.2 °F 46.4 °F 93% 30.25 in 3.0 mi Calm Calm - N/A Rain Rain
9:35 PM 48.2 °F 48.2 °F 100% 30.25 in 3.0 mi Calm Calm - N/A   Overcast
9:55 PM 48.2 °F 46.4 °F 93% 30.25 in 10.0 mi Calm Calm - N/A   Overcast
10:15 PM 48.2 °F 48.2 °F 100% 30.24 in 5.0 mi Calm Calm - N/A   Mostly Cloudy
10:35 PM 48.2 °F 48.2 °F 100% 30.25 in 10.0 mi Calm Calm - N/A   Mostly Cloudy
10:55 PM 48.2 °F 48.2 °F 100% 30.26 in 10.0 mi NW 3.5 mph - N/A   Overcast
11:15 PM 48.2 °F 48.2 °F 100% 30.25 in 10.0 mi Calm Calm - N/A   Overcast
11:35 PM 48.2 °F 48.2 °F 100% 30.25 in 10.0 mi Calm Calm - N/A   Overcast
11:55 PM 48.2 °F 48.2 °F 100% 30.24 in 8.0 mi Calm Calm - N/A   Overcast